Weather History for Cincinnati, OH

Change the Weather History Date:

Monday, August 12, 2013

  Actual Average Record
Temperature  
Mean Temperature 73 °F -  
Max Temperature 84 °F 82 °F 98 °F (2005)
Min Temperature 62 °F 63 °F 50 °F (1967)
Cooling Degree Days 8    
Growing Degree Days 23 (Base 50)    
Moisture  
Dew Point 67 °F    
Average Humidity 85    
Maximum Humidity 100    
Minimum Humidity 55    
Precipitation  
Precipitation 0.00 in - - ()
Sea Level Pressure  
Sea Level Pressure 30.01 in    
Wind  
Wind Speed 2 mph (SSW)    
Max Wind Speed 10 mph    
Max Gust Speed -    
Visibility 7 miles    
Events Fog    
Averages and records for this station are not official NWS values.
T = Trace of Precipitation, MM = Missing Value Source: NWS Daily Summary

Daily Weather History Graph

Daily Weather History Graph

Search for Another Location

Airport:

Trip Planner

Search our weather history database for the weather conditions in past years. The results will help you decide how hot, cold, wet, or windy it might be!

Date:

Astronomy

Aug. 12, 2013 Rise Set
Actual Time 6:48 AM EDT 8:36 PM EDT
Civil Twilight 6:19 AM EDT 9:05 PM EDT
Nautical Twilight 5:44 AM EDT 9:39 PM EDT
Astronomical Twilight 5:07 AM EDT 10:17 PM EDT
Moon 12:35 PM EDT (8/12) 11:31 PM EDT (8/12)
Length of Visible Light 14h 45m
Length of Day
13h 47m
Waxing Crescent, 31% of the Moon is Illuminated
Aug 12
Waxing Crescent
Aug 14
First Quarter
Aug 20
Full
Aug 28
Last Quarter
Sep 5
New

Hourly Weather History & Observations

Time (EDT) Temp. Heat Index Dew Point Humidity Pressure Visibility Wind Dir Wind Speed Gust Speed Precip Events Conditions
12:53 AM 66.9 °F - 66.0 °F 97% 30.09 in 8.0 mi Calm Calm - N/A   Clear
1:53 AM 66.0 °F - 64.9 °F 96% 30.08 in 7.0 mi Calm Calm - N/A   Clear
2:53 AM 64.9 °F - 64.9 °F 100% 30.07 in 5.0 mi Calm Calm - N/A   Clear
3:31 AM 64.4 °F - 64.4 °F 100% 30.08 in 1.8 mi Calm Calm - N/A   Clear
3:41 AM 64.4 °F - 64.4 °F 100% 30.08 in 3.0 mi Calm Calm - N/A   Clear
3:53 AM 64.0 °F - 64.0 °F 100% 30.07 in 4.0 mi Calm Calm - N/A   Clear
4:53 AM 64.9 °F - 64.0 °F 97% 30.07 in 5.0 mi Calm Calm - N/A   Clear
5:08 AM 62.6 °F - 62.6 °F 100% 30.08 in 4.0 mi Calm Calm - N/A   Partly Cloudy
5:53 AM 64.0 °F - 64.0 °F 100% 30.07 in 3.0 mi Calm Calm - N/A   Clear
6:14 AM 64.4 °F - 64.4 °F 100% 30.07 in 4.0 mi Calm Calm - N/A   Scattered Clouds
6:22 AM 64.4 °F - 62.6 °F 94% 30.08 in 5.0 mi Calm Calm - N/A   Mostly Cloudy
6:53 AM 64.9 °F - 64.0 °F 97% 30.06 in 1.0 mi Calm Calm - N/A Fog Patches of Fog
7:53 AM 66.0 °F - 64.9 °F 96% 30.06 in 4.0 mi Calm Calm - N/A Fog Patches of Fog
8:53 AM 69.1 °F - 68.0 °F 96% 30.06 in 5.0 mi Calm Calm - N/A   Partly Cloudy
9:53 AM 75.0 °F - 69.1 °F 82% 30.05 in 10.0 mi Calm Calm - N/A   Clear
10:53 AM 80.1 °F 82.9 °F 69.1 °F 69% 30.04 in 10.0 mi Variable 4.6 mph - N/A   Scattered Clouds
11:53 AM 81.0 °F 83.3 °F 66.9 °F 62% 30.03 in 10.0 mi SSW 9.2 mph - N/A   Mostly Cloudy
12:53 PM 82.9 °F 85.0 °F 66.0 °F 56% 30.01 in 10.0 mi SSW 8.1 mph - N/A   Clear
1:53 PM 84.0 °F 86.3 °F 66.0 °F 55% 30.00 in 10.0 mi South 8.1 mph - N/A   Mostly Cloudy
2:53 PM 82.0 °F 84.5 °F 66.9 °F 60% 29.98 in 10.0 mi SSW 4.6 mph - N/A   Mostly Cloudy
3:53 PM 82.9 °F 85.8 °F 68.0 °F 60% 29.95 in 10.0 mi SSW 4.6 mph - N/A   Scattered Clouds
4:53 PM 82.0 °F 85.5 °F 69.1 °F 65% 29.94 in 10.0 mi SSW 8.1 mph - N/A   Scattered Clouds
5:48 PM 82.4 °F 87.2 °F 71.6 °F 70% 29.93 in 8.0 mi SSW 9.2 mph - N/A   Mostly Cloudy
5:53 PM 81.0 °F 84.9 °F 71.1 °F 72% 29.92 in 8.0 mi SSW 10.4 mph - N/A   Scattered Clouds
6:53 PM 80.1 °F 83.6 °F 71.1 °F 74% 29.91 in 9.0 mi South 6.9 mph - N/A   Mostly Cloudy
7:53 PM 77.0 °F - 71.1 °F 82% 29.91 in 9.0 mi South 10.4 mph - N/A   Mostly Cloudy
8:53 PM 75.0 °F - 72.0 °F 90% 29.91 in 10.0 mi SSW 6.9 mph - N/A   Partly Cloudy
9:53 PM 73.9 °F - 72.0 °F 93% 29.88 in 10.0 mi South 3.5 mph - N/A   Scattered Clouds
10:53 PM 75.0 °F - 72.0 °F 90% 29.89 in 10.0 mi Calm Calm - N/A   Clear
11:50 PM 75.2 °F - 71.6 °F 89% 29.91 in 10.0 mi SW 5.8 mph - N/A   Mostly Cloudy
11:53 PM 75.0 °F - 72.0 °F 90% 29.89 in 10.0 mi SW 4.6 mph - N/A   Mostly Cloudy